Flag for Germany Weather past 2 weeks in Gladbeck, North Rhine-Westphalia, Germany

Now
64 °F

Partly sunny.


Feels Like: 64 °F
Forecast: 48 / 64 °F
Wind: 2 mph from Southwest

Location: Duesseldorf

Current Time: May 22, 2015 at 12:27:33 PM

Latest Report: May 22, 2015 at 12:00 PM


Visibility: 22 mi

Pressure: 30.31 "Hg

Humidity: 42%

Dew point: 40 °F

Location of GladbeckLocation

Historic Weather in Gladbeck — Graph

°F

Gladbeck temperature yesterday

Maximum temperature yesterday: 63 °F (at 7:00 PM)
Minimum temperature yesterday: 38 °F (at 4:00 AM)
Average temperature yesterday: 52 °F

Past Weeks' High & Low Weather Summary

 TemperatureHumidityPressure
High78 °F (May 11, 6:00 PM)99% (May 17, 2:00 AM)30.35 "Hg (May 17, 2:00 AM)
Low38 °F (May 21, 4:00 AM)36% (May 13, 4:00 PM)29.65 "Hg (May 18, 8:00 PM)
Average56 °F65%30.07 "Hg
* Reported May 7 10:00 AM — May 22 10:00 AM, Gladbeck, Weather by CustomWeather, © 2015

Note: Actual official high and low records may vary slightly from our data, if they occured in-between our weather recording intervals... More about our weather records

Advertising

Gladbeck weather history for previous 24 hours

 ConditionsComfort  
Time TempWeatherWind HumidityBarometerVisibility
10:00 AM
Fri, May 22
59 °FOvercast.1 mph55%30.34 "Hg22 mi
9:00 AM57 °FOvercast.1 mph60%30.34 "Hg22 mi
8:00 AM54 °FPartly sunny.2 mph72%30.34 "Hg25 mi
7:00 AM49 °FOvercast.1 mph85%30.34 "Hg25 mi
6:00 AM46 °FPartly sunny.1 mph92%30.33 "Hg19 mi
4:00 AM45 °FOvercast.1 mph91%30.34 "Hg19 mi
3:00 AM47 °FPassing clouds.1 mph87%30.34 "Hg19 mi
2:00 AM47 °FOvercast.1 mph87%30.34 "Hg19 mi
1:00 AM49 °FPassing clouds.1 mph80%30.34 "Hg19 mi
12:00 AM55 °FPassing clouds.2 mph62%30.34 "Hg19 mi
10:00 PM
Thu, May 21
57 °FPassing clouds.2 mph62%30.32 "Hg16 mi
9:00 PM58 °FPartly sunny.1 mph62%30.29 "Hg19 mi
8:00 PM60 °FPartly sunny.3 mph52%30.29 "Hg17 mi
7:00 PM63 °FPartly sunny.1 mph46%30.28 "Hg17 mi
6:00 PM62 °FPartly sunny.1 mph46%30.28 "Hg17 mi
4:00 PM61 °FOvercast.2 mph47%30.28 "Hg22 mi
3:00 PM63 °FPassing clouds.2 mph40%30.27 "Hg25 mi
2:00 PM60 °FScattered clouds.5 mph46%30.28 "Hg25 mi
1:00 PM62 °FPassing clouds.5 mph45%30.28 "Hg25 mi
Weather by CustomWeather, © 2015

See weather overviewHow to use our weather pages